When you browse on this site, cookies collect data to enhance your experience and personalize the content and advertising you see.
Visit our Privacy Policy to learn more. By continuing to use the site, you agree to this use of cookies and data.
  • In Österreich
  • Länderverzeichnis
  • Für 7 Tage
  • Wassertemperatur
  • Wetterkarte
  • News
  • Widgets
  • user-avatar
    Anmelden

    Stündliche Wetter Ixmiquilpan

    Heute, 19 September, Donnerstag

    Zeit Temperatur Niederschläge Wind Luftdruck Luftfeuchtigkeit
    00:00 +20°C° 0.2 mm 1 m/S 622 mmHg 90%
    01:00 +19°C° 0.2 mm 1 m/S 622 mmHg 89%
    02:00 +19°C° 0.2 mm 1 m/S 622 mmHg 89%
    03:00 +19°C° 0 mm 1 m/S 621 mmHg 90%
    04:00 +18°C° 0 mm 1 m/S 621 mmHg 91%
    05:00 +16°C° 0 mm 0 m/S 621 mmHg 91%
    06:00 +17°C° 0 mm 0 m/S 621 mmHg 85%
    07:00 +19°C° 0 mm 0 m/S 622 mmHg 78%
    08:00 +20°C° 0 mm 0 m/S 623 mmHg 71%
    09:00 +22°C° 0.1 mm 0 m/S 623 mmHg 65%
    10:00 +25°C° 0.1 mm 1 m/S 623 mmHg 58%
    11:00 +27°C° 0.1 mm 1 m/S 624 mmHg 52%
    12:00 +27°C° 0.2 mm 2 m/S 623 mmHg 53%
    13:00 +27°C° 0.2 mm 3 m/S 623 mmHg 54%
    14:00 +27°C° 0.2 mm 5 m/S 622 mmHg 56%
    15:00 +26°C° 0.8 mm 4 m/S 622 mmHg 63%
    16:00 +25°C° 0.8 mm 4 m/S 621 mmHg 71%
    17:00 +22°C° 0.8 mm 3 m/S 621 mmHg 78%
    18:00 +21°C° 0.3 mm 2 m/S 621 mmHg 84%
    19:00 +20°C° 0.3 mm 2 m/S 621 mmHg 89%
    20:00 +20°C° 0.3 mm 1 m/S 621 mmHg 95%
    21:00 +20°C° 0.3 mm 1 m/S 621 mmHg 95%
    22:00 +20°C° 0.3 mm 1 m/S 621 mmHg 95%
    23:00 +19°C° 0.3 mm 1 m/S 621 mmHg 94%

    Morgen, 20 September, Freitag

    Zeit Temperatur Niederschläge Wind Luftdruck Luftfeuchtigkeit
    00:00 +19°C° 0.1 mm 1 m/S 621 mmHg 94%
    01:00 +19°C° 0.1 mm 1 m/S 621 mmHg 93%
    02:00 +17°C° 0.1 mm 0 m/S 621 mmHg 93%
    03:00 +16°C° 0 mm 0 m/S 621 mmHg 93%
    04:00 +16°C° 0 mm 0 m/S 621 mmHg 92%
    05:00 +16°C° 0 mm 0 m/S 621 mmHg 92%
    06:00 +17°C° 0 mm 0 m/S 621 mmHg 88%
    07:00 +18°C° 0 mm 0 m/S 622 mmHg 84%
    08:00 +21°C° 0 mm 1 m/S 623 mmHg 79%
    09:00 +22°C° 0 mm 1 m/S 623 mmHg 74%
    10:00 +24°C° 0 mm 2 m/S 623 mmHg 68%
    11:00 +25°C° 0 mm 2 m/S 623 mmHg 62%
    12:00 +26°C° 0 mm 3 m/S 623 mmHg 59%
    13:00 +26°C° 0 mm 4 m/S 622 mmHg 56%
    14:00 +27°C° 0 mm 5 m/S 622 mmHg 53%
    15:00 +26°C° 0.1 mm 5 m/S 622 mmHg 60%
    16:00 +23°C° 0.1 mm 4 m/S 622 mmHg 68%
    17:00 +22°C° 0.1 mm 4 m/S 621 mmHg 75%
    18:00 +21°C° 0 mm 3 m/S 621 mmHg 81%
    19:00 +19°C° 0 mm 2 m/S 622 mmHg 87%
    20:00 +18°C° 0 mm 2 m/S 622 mmHg 94%
    21:00 +19°C° 0 mm 1 m/S 622 mmHg 94%
    22:00 +18°C° 0 mm 1 m/S 622 mmHg 95%
    23:00 +18°C° 0 mm 1 m/S 622 mmHg 96%

    übermorgen, 21 September, Samstag

    Zeit Temperatur Niederschläge Wind Luftdruck Luftfeuchtigkeit
    00:00 +18°C° 0 mm 1 m/S 622 mmHg 93%
    01:00 +18°C° 0 mm 1 m/S 622 mmHg 91%
    02:00 +16°C° 0 mm 0 m/S 622 mmHg 89%
    03:00 +16°C° 0 mm 0 m/S 622 mmHg 88%
    04:00 +16°C° 0 mm 0 m/S 622 mmHg 86%
    05:00 +16°C° 0 mm 0 m/S 622 mmHg 85%
    06:00 +17°C° 0 mm 0 m/S 623 mmHg 80%
    07:00 +18°C° 0 mm 0 m/S 623 mmHg 74%
    08:00 +19°C° 0 mm 0 m/S 624 mmHg 69%
    09:00 +23°C° 0 mm 1 m/S 624 mmHg 60%
    10:00 +24°C° 0 mm 1 m/S 624 mmHg 52%
    11:00 +26°C° 0 mm 2 m/S 624 mmHg 43%
    12:00 +26°C° 0 mm 3 m/S 624 mmHg 43%
    13:00 +27°C° 0 mm 4 m/S 623 mmHg 43%
    14:00 +28°C° 0 mm 4 m/S 623 mmHg 43%
    15:00 +26°C° 0 mm 4 m/S 622 mmHg 53%
    16:00 +25°C° 0 mm 4 m/S 622 mmHg 63%
    17:00 +22°C° 0 mm 4 m/S 622 mmHg 73%
    18:00 +21°C° 0 mm 3 m/S 622 mmHg 80%
    19:00 +19°C° 0 mm 2 m/S 622 mmHg 87%
    20:00 +18°C° 0 mm 2 m/S 622 mmHg 94%
    21:00 +19°C° 0 mm 1 m/S 622 mmHg 94%
    22:00 +18°C° 0 mm 1 m/S 622 mmHg 95%
    23:00 +18°C° 0 mm 1 m/S 622 mmHg 95%

    22 September, Sonntag

    Zeit Temperatur Niederschläge Wind Luftdruck Luftfeuchtigkeit
    00:00 +16°C° 0 mm 0 m/S 622 mmHg 94%
    01:00 +16°C° 0 mm 0 m/S 622 mmHg 94%
    02:00 +15°C° 0 mm 0 m/S 621 mmHg 94%
    03:00 +15°C° 0 mm 0 m/S 621 mmHg 94%
    04:00 +15°C° 0 mm 0 m/S 621 mmHg 94%
    05:00 +15°C° 0 mm 0 m/S 622 mmHg 94%
    06:00 +16°C° 0 mm 0 m/S 622 mmHg 88%
    07:00 +18°C° 0 mm 0 m/S 623 mmHg 81%
    08:00 +19°C° 0 mm 0 m/S 624 mmHg 75%
    09:00 +23°C° 0 mm 1 m/S 624 mmHg 67%
    10:00 +25°C° 0 mm 1 m/S 624 mmHg 58%
    11:00 +26°C° 0 mm 2 m/S 624 mmHg 50%
    12:00 +27°C° 0 mm 3 m/S 624 mmHg 48%
    13:00 +27°C° 0 mm 3 m/S 623 mmHg 46%
    14:00 +28°C° 0 mm 4 m/S 623 mmHg 44%
    15:00 +27°C° 0 mm 4 m/S 622 mmHg 54%
    16:00 +25°C° 0 mm 4 m/S 622 mmHg 63%
    17:00 +23°C° 0 mm 4 m/S 622 mmHg 72%
    18:00 +21°C° 0 mm 3 m/S 622 mmHg 80%
    19:00 +20°C° 0 mm 2 m/S 622 mmHg 87%
    20:00 +19°C° 0 mm 2 m/S 622 mmHg 95%
    21:00 +19°C° 0 mm 1 m/S 622 mmHg 95%
    22:00 +19°C° 0 mm 1 m/S 622 mmHg 95%
    23:00 +18°C° 0 mm 1 m/S 622 mmHg 95%

    23 September, Montag

    Zeit Temperatur Niederschläge Wind Luftdruck Luftfeuchtigkeit
    00:00 +18°C° 0 mm 1 m/S 622 mmHg 94%
    01:00 +16°C° 0 mm 0 m/S 622 mmHg 93%
    02:00 +16°C° 0 mm 0 m/S 621 mmHg 93%
    03:00 +15°C° 0 mm 0 m/S 621 mmHg 92%
    04:00 +15°C° 0 mm 0 m/S 621 mmHg 91%
    05:00 +15°C° 0 mm 0 m/S 622 mmHg 91%
    06:00 +16°C° 0 mm 0 m/S 622 mmHg 84%
    07:00 +18°C° 0 mm 0 m/S 623 mmHg 77%
    08:00 +19°C° 0 mm 0 m/S 624 mmHg 70%
    09:00 +23°C° 0 mm 1 m/S 624 mmHg 62%
    10:00 +24°C° 0 mm 1 m/S 624 mmHg 54%
    11:00 +26°C° 0 mm 1 m/S 624 mmHg 45%
    12:00 +27°C° 0 mm 2 m/S 624 mmHg 44%
    13:00 +27°C° 0 mm 3 m/S 623 mmHg 42%
    14:00 +28°C° 0 mm 4 m/S 623 mmHg 40%
    15:00 +27°C° 0 mm 4 m/S 623 mmHg 49%
    16:00 +25°C° 0 mm 4 m/S 622 mmHg 59%
    17:00 +23°C° 0 mm 4 m/S 622 mmHg 68%
    18:00 +21°C° 0 mm 3 m/S 622 mmHg 77%
    19:00 +20°C° 0 mm 2 m/S 622 mmHg 86%
    20:00 +19°C° 0 mm 1 m/S 622 mmHg 95%
    21:00 +19°C° 0 mm 1 m/S 622 mmHg 95%
    22:00 +19°C° 0 mm 1 m/S 622 mmHg 95%
    23:00 +18°C° 0 mm 1 m/S 622 mmHg 95%

    24 September, Dienstag

    Zeit Temperatur Niederschläge Wind Luftdruck Luftfeuchtigkeit
    00:00 +16°C° 0 mm 0 m/S 621 mmHg 94%
    01:00 +16°C° 0 mm 0 m/S 621 mmHg 94%
    02:00 +15°C° 0 mm 0 m/S 621 mmHg 93%
    03:00 +15°C° 0 mm 0 m/S 621 mmHg 92%
    04:00 +15°C° 0 mm 0 m/S 621 mmHg 92%
    05:00 +15°C° 0 mm 1 m/S 621 mmHg 92%
    06:00 +18°C° 0 mm 1 m/S 622 mmHg 83%
    07:00 +20°C° 0 mm 1 m/S 622 mmHg 73%
    08:00 +20°C° 0 mm 0 m/S 623 mmHg 64%
    09:00 +23°C° 0 mm 1 m/S 623 mmHg 57%
    10:00 +25°C° 0 mm 1 m/S 624 mmHg 50%
    11:00 +27°C° 0 mm 1 m/S 624 mmHg 43%
    12:00 +27°C° 0 mm 2 m/S 623 mmHg 43%
    13:00 +28°C° 0 mm 2 m/S 623 mmHg 42%
    14:00 +28°C° 0 mm 3 m/S 623 mmHg 41%
    15:00 +27°C° 0.3 mm 3 m/S 622 mmHg 51%
    16:00 +25°C° 0.3 mm 3 m/S 622 mmHg 60%
    17:00 +24°C° 0.3 mm 3 m/S 622 mmHg 70%
    18:00 +23°C° 0.7 mm 2 m/S 622 mmHg 76%
    19:00 +20°C° 0.7 mm 2 m/S 622 mmHg 83%
    20:00 +20°C° 0.7 mm 1 m/S 622 mmHg 90%
    21:00 +20°C° 0.2 mm 1 m/S 622 mmHg 91%
    22:00 +19°C° 0.2 mm 1 m/S 622 mmHg 91%
    23:00 +19°C° 0.2 mm 1 m/S 622 mmHg 92%
    Mehr zeigen